THORAD AGENA D DEB, 5736

Orbit data source: Space-Track

THORAD AGENA D DEB, 5736 is space debris in SSO originally from a launch on Wed, 08 Apr 1970 UTC launched from the Air Force Western Test Range (AFWTR). Debris objects in space refer to the collection of defunct objects orbiting the Earth. Examples of debris include non-operational satellites, rocket bodies, and fragments generated from explosions, collisions, or faulty payload assembly.

Loading next visibility...
Identifier
5736, 1970-025MH
Orbit
SSO
Country
Flag of USUS
Related business
Manufacturer
Unknown
Mission
Spacecraft
Bus & Motor
Unknown
Mass
Unknown
Launch date (UTC)
1970-04-08 (56 years ago)
Launch vehicle
Unknown
Launch site
Air Force Western Test Range (AFWTR)
Object type
Payload
Rocket body
Debris
Shape & HBR
Unknown shape, 0.1 m
Radar Cross Section
Medium (>0.1 m² and <1 m²)

Expand to show TLE details & history
Last TLE update: 11 hours ago

TLE from 11 hours ago
0 THORAD AGENA D DEB
1  5736U 70025MH  26149.92125948  .00000223  00000-0  64976-3 0  9999
2  5736 101.4303 140.6919 0223400 281.0119 105.5976 13.14959433690671
Epoch: 2026-05-29T22:06Z
TLE epoch observation values (Epoch: 2026-05-29T22:06:36.819Z)
Latitude
28.47049°
Longitude
-84.66923°
Altitude
1,256.367 km
Speed
7.206 km/s
True Right ascension
08h 57m 42s
True Declination
28° 20' 10"
Sunlit
Object was in daylight at epoch
Visualization orbit readout
Latitude
Unknown
Longitude
Unknown
Altitude
Unknown
Speed
Unknown
Apparent Right ascension
Unknown
Apparent Declination
Unknown
Sunlit
N/A
Visualization observer readout
Local Sidereal Time
18:09:54
Azimuth
Unknown
Elevation
Unknown
Doppler factor
Unknown
Orbital elements
Apogee altitude
1,370.804 km
Perigee altitude
1,032.147 km
Semi-major axis
7,579.613 km
Eccentricity
0.02234
Inclination
101.4303°
RAAN
140.6919°
Arg. of periapsis
281.0119°
True anomaly
108.04418°
Mean anomaly
105.5976°
Eccentric anomaly
106.82281°
Mean motion
3.28907 °/min
Orbital period
109.45 mins
BSTAR
0.00064976
Loading maneuver chart data...
Computing Atmospheric mass density...

Documentation

Showing up to 5 results
|